Date String (YYYY-MM-DD hh:mm:ss) UTC,Instrument flags,Ambient pressure (hPa),Sample flow (lpm),Bypass flow (lpm),Sample temperature (°C),Ambient temperature (°C),ASC tube jacket temperature (°C),LED temperature (°C),Box temperature (°C),Sample RH (%),Span deviation,Mass concentration (μg/m³),Mass concentration (μg/m³),Mass concentration (μg/m³)
DateTimeUTC,F1_M11,P_M11,Q1_M11,Q2_M11,T1_M11,T2_M11,T3_M11,T4_M11,T5_M11,U1_M11,ZSPAN_M11,X0_M11,X2_M11,X1_M11
2022-01-13 06:00:00,,0831.7,4.99,0.00,26.3,25.5,00.0,35.3,28.1,10.2,0000.0,0001.57,0000.01,0000.00
2022-01-13 06:01:00,,0831.7,5.01,0.00,26.3,25.5,00.0,35.3,28.1,10.3,0000.0,0001.57,0000.01,0000.00
2022-01-13 06:02:00,,0831.7,4.99,0.00,26.3,25.5,00.0,35.3,28.1,10.4,0000.0,0001.58,0000.02,0000.00
2022-01-13 06:03:00,,0831.7,5.00,0.00,26.3,25.5,00.0,35.3,28.1,10.4,0000.0,0001.60,0000.03,0000.00
2022-01-13 06:04:00,,0831.7,5.01,0.00,26.3,25.5,00.0,35.3,28.1,10.4,0000.0,0001.61,0000.04,0000.01
2022-01-13 06:05:00,,0831.7,4.99,0.00,26.3,25.5,00.0,35.3,28.1,10.4,0000.0,0001.61,0000.03,0000.01
2022-01-13 06:06:00,,0831.7,5.00,0.00,26.3,25.5,00.0,35.3,28.1,10.4,0000.0,0001.47,0000.03,0000.01
2022-01-13 06:07:00,,0831.7,4.99,0.00,26.4,25.5,00.0,35.3,28.1,10.4,0000.0,0001.21,0000.05,0000.01
2022-01-13 06:08:00,,0831.7,5.01,0.00,26.3,25.5,00.0,35.3,28.1,10.4,0000.0,0000.10,0000.05,0000.01
2022-01-13 06:09:00,,0831.7,4.98,0.00,26.3,25.5,00.0,35.3,28.1,10.3,0000.0,0000.23,0000.05,0000.01
2022-01-13 06:10:00,,0831.7,5.02,0.00,26.3,25.5,00.0,35.3,28.1,10.3,0000.0,0000.23,0000.05,0000.00
2022-01-13 06:11:00,,0831.6,4.98,0.00,26.3,25.5,00.0,35.3,28.1,10.3,0000.0,0001.10,0000.05,0000.00
2022-01-13 06:12:00,,0831.7,5.00,0.00,26.3,25.5,00.0,35.3,28.1,10.3,0000.0,0001.90,0000.06,0000.00
2022-01-13 06:13:00,,0831.7,5.02,0.00,26.3,25.5,00.0,35.3,28.1,10.3,0000.0,0001.90,0000.06,0000.01
2022-01-13 06:14:00,,0831.7,4.99,0.00,26.3,25.5,00.0,35.3,28.1,10.2,0000.0,0001.89,0000.05,0000.00
2022-01-13 06:15:00,,0831.7,4.99,0.00,26.3,25.5,00.0,35.3,28.1,10.2,0000.0,0001.88,0000.05,0000.00
2022-01-13 06:16:00,,0831.7,5.01,0.00,26.3,25.5,00.0,35.3,28.1,10.2,0000.0,0001.88,0000.05,0000.00
2022-01-13 06:17:00,,0831.8,4.98,0.00,26.3,25.5,00.0,35.3,28.1,10.2,0000.0,0001.88,0000.05,0000.00
2022-01-13 06:18:00,,0831.9,5.01,0.00,26.3,25.5,00.0,35.3,28.1,10.3,0000.0,0002.04,0000.04,0000.00
2022-01-13 06:19:00,,0831.9,4.98,0.00,26.3,25.5,00.0,35.3,28.0,10.4,0000.0,0002.06,0000.04,0000.00
2022-01-13 06:20:00,,0831.8,5.01,0.00,26.3,25.5,00.0,35.3,28.0,10.4,0000.0,0001.93,0000.03,0000.01
2022-01-13 06:21:00,,0831.7,5.00,0.00,26.3,25.5,00.0,35.3,28.0,10.5,0000.0,0002.01,0000.04,0000.01
2022-01-13 06:22:00,,0831.7,5.00,0.00,26.3,25.4,00.0,35.3,28.0,10.6,0000.0,0001.03,0000.05,0000.01
2022-01-13 06:23:00,,0831.6,4.99,0.00,26.3,25.4,00.0,35.3,28.0,10.5,0000.0,0000.38,0000.03,0000.01
2022-01-13 06:24:00,,0831.7,5.02,0.00,26.3,25.4,00.0,35.3,28.0,10.5,0000.0,0000.37,0000.03,0000.01
2022-01-13 06:25:00,,0831.7,4.99,0.00,26.3,25.4,00.0,35.3,28.0,10.6,0000.0,0000.37,0000.03,0000.01
2022-01-13 06:26:00,,0831.7,4.99,0.00,26.3,25.4,00.0,35.3,28.0,10.6,0000.0,0000.37,0000.03,0000.01
2022-01-13 06:27:00,,0831.7,5.00,0.00,26.3,25.4,00.0,35.3,28.0,10.6,0000.0,0000.37,0000.03,0000.01
2022-01-13 06:28:00,,0831.7,4.99,0.00,26.3,25.4,00.0,35.3,28.0,10.6,0000.0,0000.37,0000.03,0000.01
2022-01-13 06:29:00,,0831.6,5.02,0.00,26.2,25.3,00.0,35.3,28.0,10.6,0000.0,0000.16,0000.02,0000.00
2022-01-13 06:30:00,,0831.7,4.99,0.00,26.2,25.3,00.0,35.3,27.9,10.5,0000.0,0000.15,0000.02,0000.00
2022-01-13 06:31:00,,0831.7,5.01,0.00,26.2,25.3,00.0,35.3,27.9,10.6,0000.0,0000.16,0000.03,0000.00
2022-01-13 06:32:00,,0831.7,4.99,0.00,26.2,25.3,00.0,35.3,27.9,10.6,0000.0,0000.07,0000.02,0000.00
2022-01-13 06:33:00,,0831.7,5.00,0.00,26.2,25.3,00.0,35.3,27.9,10.7,0000.0,0000.03,0000.01,0000.00
2022-01-13 06:34:00,,0831.6,5.01,0.00,26.2,25.3,00.0,35.3,27.9,10.6,0000.0,0000.18,0000.02,0000.00
2022-01-13 06:35:00,,0831.6,4.99,0.00,26.2,25.3,00.0,35.2,27.9,10.5,0000.0,0000.22,0000.03,0000.00
2022-01-13 06:36:00,,0831.5,5.00,0.00,26.2,25.3,00.0,35.2,27.9,10.3,0000.0,0000.33,0000.04,0000.00
2022-01-13 06:37:00,,0831.6,4.99,0.00,26.2,25.3,00.0,35.2,27.9,10.3,0000.0,0000.36,0000.04,0000.00
2022-01-13 06:38:00,,0831.6,5.00,0.00,26.2,25.2,00.0,35.2,27.9,10.3,0000.0,0000.40,0000.05,0000.00
2022-01-13 06:39:00,,0831.5,5.02,0.00,26.2,25.2,00.0,35.2,27.8,10.4,0000.0,0000.42,0000.05,0000.00
2022-01-13 06:40:00,,0831.5,4.99,0.00,26.2,25.2,00.0,35.2,27.8,10.5,0000.0,0000.42,0000.05,0000.00
2022-01-13 06:41:00,,0831.4,5.01,0.00,26.1,25.2,00.0,35.2,27.8,10.5,0000.0,0000.41,0000.05,0000.00
2022-01-13 06:42:00,,0831.3,4.99,0.00,26.1,25.2,00.0,35.2,27.8,10.6,0000.0,0000.39,0000.04,0000.00
2022-01-13 06:43:00,,0831.4,5.02,0.00,26.1,25.2,00.0,35.2,27.8,10.4,0000.0,0000.39,0000.04,0000.00
2022-01-13 06:44:00,,0831.5,4.99,0.00,26.1,25.2,00.0,35.2,27.8,10.4,0000.0,0000.43,0000.06,0000.00
2022-01-13 06:45:00,,0831.5,5.01,0.00,26.1,25.2,00.0,35.2,27.8,10.3,0000.0,0000.33,0000.07,0000.00
2022-01-13 06:46:00,,0831.5,4.99,0.00,26.1,25.2,00.0,35.2,27.8,10.4,0000.0,0000.28,0000.06,0000.00
2022-01-13 06:47:00,,0831.6,5.00,0.00,26.1,25.2,00.0,35.2,27.8,10.4,0000.0,0000.17,0000.05,0000.00
2022-01-13 06:48:00,,0831.6,5.01,0.00,26.1,25.2,00.0,35.1,27.8,10.3,0000.0,0000.13,0000.04,0000.00
2022-01-13 06:49:00,,0831.5,4.99,0.00,26.1,25.2,00.0,35.1,27.8,10.6,0000.0,0000.10,0000.04,0000.00
2022-01-13 06:50:00,,0831.6,5.01,0.00,26.1,25.2,00.0,35.1,27.8,10.6,0000.0,0000.07,0000.03,0000.00
2022-01-13 06:51:00,,0831.6,4.99,0.00,26.1,25.2,00.0,35.1,27.8,10.5,0000.0,0000.09,0000.04,0000.00
2022-01-13 06:52:00,,0831.6,5.01,0.00,26.1,25.2,00.0,35.1,27.8,10.6,0000.0,0000.09,0000.04,0000.00
2022-01-13 06:53:00,,0831.6,4.99,0.00,26.1,25.2,00.0,35.1,27.8,10.6,0000.0,0000.09,0000.04,0000.00
2022-01-13 06:54:00,,0831.6,5.01,0.00,26.1,25.2,00.0,35.1,27.8,10.6,0000.0,0000.09,0000.04,0000.00
2022-01-13 06:55:00,,0831.6,4.99,0.00,26.1,25.2,00.0,35.1,27.8,10.5,0000.0,0000.07,0000.03,0000.00
2022-01-13 06:56:00,,0831.6,5.02,0.00,26.1,25.3,00.0,35.1,27.9,10.4,0000.0,0000.03,0000.01,0000.00
2022-01-13 06:57:00,,0831.6,4.98,0.00,26.1,25.3,00.0,35.1,27.9,10.4,0000.0,0000.03,0000.01,0000.00
2022-01-13 06:58:00,,0831.6,5.01,0.00,26.1,25.3,00.0,35.1,27.9,10.4,0000.0,0000.03,0000.01,0000.00
2022-01-13 06:59:00,,0831.6,5.01,0.00,26.1,25.3,00.0,35.1,27.8,10.4,0000.0,0000.03,0000.01,0000.00
